sat.trackr.live / text

‹ back to catalog

STARLINK-30223

NORAD 57603 · 2023-119B

PAYLOAD ACTIVE UNKNOWN

§ Identity

Operator
Country
US
Launch date
2023-08-11
Launch site
AFETR
Launch vehicle
Mass (kg)
RCS (m²)

Purposes: comms

External: N2YO · Heavens-Above · Gunter

§ Orbital elements

Epoch: 2026-05-25T00:30:22.615776Z

Period
95.38 min
Inclination
43.0009°
Eccentricity
0.0005281
Mean motion
15.09695459 rev/d
Perigee alt
533.5 km
Apogee alt
540.8 km
Semi-major
6,915.3 km
B*
1.0501e-3
RAAN
22.9764°
Arg perigee
230.9887°
Mean anomaly
129.0488°
Rev number
15,460

§ Raw data

STARLINK-302231 57603U 23119B   26145.02109509  .00017040  00000+0  10501-2 0  99912 57603  43.0009  22.9764 0005281 230.9887 129.0488 15.09695459154603

JSON: /api/v1/satellites/57603 · /tle

For live sub-satellite position, see the globe view (requires WebGL).

§ Visibility from observer

Set your observer location to see the next 7 days of passes ≥ 10°. The values pass through the URL so the page stays shareable.

No JS? Fill the form by hand. The geolocation button needs JavaScript.